CW6344 Weather Reports


time (UTC)temp
C
wind
direction
speed
KPH
gust
KPH
rain 1hr
cm
rain 24hr
cm
rain mn
cm
humidity
%
barometer
mb
20260901154440 32 279 0.0 1.6 0.00 0.00 0.00 71 1016.7
20260901152440 30 223 0.0 1.6 0.00 0.00 0.00 75 1016.7
20260901151440 30 229 1.6 4.8 0.00 0.00 0.00 74 1016.8
20260901150440 30 283 0.0 4.8 0.00 0.00 0.00 74 1016.9
20260901145440 30 232 0.0 3.2 0.00 0.00 0.00 77 1016.9
20260901144440 29 276 0.0 1.6 0.00 0.00 0.00 76 1017.1
20260901143440 30 299 1.6 3.2 0.00 0.00 0.00 77 1016.9
20260901142440 30 197 1.6 3.2 0.00 0.00 0.00 78 1016.9
20260901141440 29 290 0.0 3.2 0.00 0.00 0.00 79 1016.9
20260901140510 28 321 1.6 1.6 0.00 0.00 0.00 81 1017.0
20260901135440 27 233 0.0 0.0 0.00 0.00 0.00 84 1017.1
20260901134510 27 180 0.0 0.0 0.00 0.00 0.00 84 1017.1
20260901133440 27 178 0.0 4.8 0.00 0.00 0.00 85 1017.1
20260901132510 26 222 0.0 0.0 0.00 0.00 0.00 86 1017.2
20260901131440 26 222 0.0 0.0 0.00 0.00 0.00 86 1017.2
20260901130440 26 222 0.0 0.0 0.00 0.00 0.00 86 1017.3
20260901125441 26 222 0.0 0.0 0.00 0.00 0.00 86 1017.5
20260901124440 26 222 0.0 0.0 0.00 0.00 0.00 86 1017.5
20260901123440 26 223 1.6 3.2 0.00 0.00 0.00 86 1017.4
20260901122441 25 202 0.0 3.2 0.00 0.00 0.00 88 1017.5
20260901121441 25 246 0.0 0.0 0.00 0.00 0.00 89 1017.4
20260901120440 25 246 0.0 0.0 0.00 0.00 0.00 89 1017.4
20260901115441 24 253 0.0 0.0 0.00 0.00 0.00 90 1017.3
20260901114441 24 253 0.0 0.0 0.00 0.00 0.00 91 1017.3
20260901112441 23 195 0.0 0.0 0.00 0.00 0.00 92 1017.1
20260901111441 23 225 0.0 0.0 0.00 0.00 0.00 92 1017.0
20260901110441 23 225 0.0 0.0 0.00 0.00 0.00 92 1016.8
20260901105441 23 213 0.0 0.0 0.00 0.00 0.00 91 1016.7
20260901104441 23 17 0.0 0.0 0.00 0.00 0.00 91 1016.6
20260901103441 23 345 0.0 0.0 0.00 0.00 0.00 91 1016.7
20260901102441 23 13 0.0 0.0 0.00 0.00 0.00 91 1016.8
20260901101441 23 13 0.0 0.0 0.00 0.00 0.00 91 1016.9
20260901100441 23 13 0.0 0.0 0.00 0.00 0.00 91 1017.0
20260901095441 23 13 0.0 0.0 0.00 0.00 0.00 91 1016.9
20260901094440 23 13 0.0 0.0 0.00 0.00 0.00 91 1016.9
20260901092441 23 13 0.0 0.0 0.00 0.00 0.00 91 1016.8
20260901091441 23 13 0.0 0.0 0.00 0.00 0.00 91 1016.8
20260901090441 23 13 0.0 0.0 0.00 0.00 0.00 90 1016.7
20260901085441 23 13 0.0 0.0 0.00 0.00 0.00 90 1016.8
20260901084441 23 13 0.0 0.0 0.00 0.00 0.00 90 1016.7
20260901083441 23 13 0.0 0.0 0.00 0.00 0.00 90 1016.8
20260901082441 23 13 0.0 0.0 0.00 0.00 0.00 90 1016.8
20260901080441 23 13 0.0 0.0 0.00 0.00 0.00 90 1016.9
20260901075441 24 13 0.0 0.0 0.00 0.00 0.00 90 1016.9
20260901074441 24 13 0.0 0.0 0.00 0.00 0.00 90 1017.0
20260901073441 24 13 0.0 0.0 0.00 0.00 0.00 90 1017.0
20260901072441 24 13 0.0 0.0 0.00 0.00 0.00 90 1017.0
20260901071441 24 13 0.0 0.0 0.00 0.00 0.00 90 1017.1
20260901070441 24 13 0.0 0.0 0.00 0.00 0.00 90 1017.0
20260901065441 24 13 0.0 0.0 0.00 0.00 0.00 91 1017.1
20260901064441 24 13 0.0 0.0 0.00 0.00 0.00 91 1017.1
20260901063441 24 13 0.0 0.0 0.00 0.00 0.00 91 1017.2
20260901062441 24 13 0.0 0.0 0.00 0.00 0.00 91 1017.3
20260901060441 25 13 0.0 0.0 0.00 0.00 0.00 90 1017.3
20260901055441 25 13 0.0 0.0 0.00 0.00 0.00 90 1017.4
20260901054441 25 13 0.0 0.0 0.00 0.00 0.00 90 1017.6
20260901053441 25 13 0.0 0.0 0.00 0.00 0.00 90 1017.8
20260901052511 25 13 0.0 0.0 0.00 0.00 0.00 90 1017.8
20260901051441 25 13 0.0 0.0 0.00 0.00 0.00 91 1017.9
20260901050441 25 13 0.0 0.0 0.00 0.00 0.00 91 1017.8
20260901045441 25 13 0.0 0.0 0.00 0.00 0.00 91 1017.9
20260901044511 25 13 0.0 0.0 0.00 0.00 0.00 91 1017.9
20260901043441 25 13 0.0 0.0 0.00 0.00 0.00 91 1018.0
20260901042441 25 13 0.0 0.0 0.00 0.00 0.00 91 1018.0
20260901041441 25 13 0.0 0.0 0.00 0.00 0.00 91 1018.0
20260901040441 25 13 0.0 0.0 0.00 0.00 0.00 91 1018.0
20260901034441 25 13 0.0 0.0 0.00 0.00 0.00 91 1018.0
20260901033441 25 13 0.0 0.0 0.00 0.00 0.00 91 1017.9
20260901032441 25 13 0.0 0.0 0.00 0.00 0.00 91 1017.8
20260901030441 25 13 0.0 0.0 0.00 0.00 0.00 91 1017.8
20260901025441 25 13 0.0 0.0 0.00 0.00 0.00 91 1017.7
20260901024441 25 13 0.0 0.0 0.00 0.00 0.00 91 1017.7
20260901023441 25 13 0.0 0.0 0.00 0.00 0.00 91 1017.7
20260901022441 25 13 0.0 0.0 0.00 0.00 0.00 91 1017.8
20260901021441 25 13 0.0 0.0 0.00 0.00 0.00 91 1017.8
20260901020441 25 13 0.0 0.0 0.00 0.00 0.00 91 1017.8
20260901015441 25 13 0.0 0.0 0.00 0.00 0.00 91 1018.0
20260901014441 25 13 0.0 0.0 0.00 0.00 0.00 91 1018.0
20260901013441 25 13 0.0 0.0 0.00 0.00 0.00 91 1017.9
20260901012511 25 13 0.0 0.0 0.00 0.00 0.00 90 1017.9
20260901011441 25 13 0.0 0.0 0.00 0.00 0.00 90 1017.8
20260901010441 25 13 0.0 0.0 0.00 0.00 0.00 90 1017.8
20260901005441 25 13 0.0 0.0 0.00 0.00 0.00 90 1017.9
20260901004441 25 13 0.0 0.0 0.00 0.00 0.00 90 1017.9
20260901003441 25 13 0.0 0.0 0.00 0.00 0.00 90 1017.9
20260901002441 25 13 0.0 0.0 0.00 0.00 0.00 90 1017.9
20260901001441 25 13 0.0 0.0 0.00 0.00 0.00 89 1017.9
20260901000443 26 13 0.0 0.0 0.00 0.00 0.00 89 1017.8
20260831234441 26 13 0.0 0.0 0.00 0.00 0.00 88 1017.7
20260831233441 26 13 0.0 0.0 0.00 0.00 0.00 87 1017.8
20260831232441 26 13 0.0 0.0 0.00 0.00 0.00 87 1017.9
20260831231441 27 13 0.0 0.0 0.00 0.00 0.00 87 1017.8
20260831230441 27 13 0.0 0.0 0.00 0.00 0.00 86 1017.9
20260831225441 27 13 0.0 0.0 0.00 0.00 0.00 86 1017.7
20260831224441 27 13 0.0 0.0 0.00 0.00 0.00 86 1017.7
20260831223441 27 13 0.0 0.0 0.00 0.00 0.00 86 1017.9
20260831222511 27 13 0.0 0.0 0.00 0.00 0.00 86 1018.0
20260831221441 27 13 0.0 0.0 0.00 0.00 0.00 86 1018.0
20260831220441 27 13 0.0 0.0 0.00 0.00 0.00 85 1018.0
20260831214441 28 13 0.0 0.0 0.00 0.00 0.00 83 1018.1
20260831213441 28 13 0.0 0.0 0.00 0.00 0.00 83 1018.1
20260831212441 28 13 0.0 0.0 0.00 0.00 0.00 83 1018.1
20260831210441 28 13 0.0 0.0 0.00 0.00 0.00 81 1017.9
20260831204441 28 13 0.0 0.0 0.00 0.00 0.00 83 1017.6
20260831202442 28 13 0.0 0.0 0.00 0.00 0.00 83 1017.7
20260831201441 28 13 0.0 0.0 0.00 0.00 0.00 82 1017.8
20260831200441 28 13 0.0 1.6 0.00 0.00 0.00 81 1018.0
20260831195441 29 13 0.0 0.0 0.00 0.00 0.00 78 1017.8
20260831194442 30 57 0.0 0.0 0.00 0.00 0.00 79 1017.8
20260831193442 30 61 1.6 3.2 0.00 0.00 0.00 78 1017.9
20260831192442 30 61 0.0 1.6 0.00 0.00 0.00 78 1018.1
20260831191442 29 75 0.0 3.2 0.00 0.00 0.00 78 1018.2
20260831190442 29 98 0.0 3.2 0.00 0.00 0.00 78 1018.1
20260831185442 29 57 0.0 1.6 0.00 0.00 0.00 78 1018.1
20260831184511 28 57 1.6 4.8 0.00 0.00 0.00 80 1018.3
20260831182442 29 28 0.0 0.0 0.00 0.00 0.00 76 1018.2
20260831181442 30 26 0.0 1.6 0.00 0.00 0.00 75 1018.3
20260831180442 30 26 1.6 1.6 0.00 0.00 0.00 73 1018.4
20260831175442 30 24 0.0 3.2 0.00 0.00 0.00 76 1018.4
20260831174442 30 71 1.6 1.6 0.00 0.00 0.00 75 1018.4
20260831173442 30 306 0.0 0.0 0.00 0.00 0.00 75 1018.5
20260831172512 30 303 0.0 0.0 0.00 0.00 0.00 76 1018.5
20260831171442 30 302 0.0 1.6 0.00 0.00 0.00 77 1018.8
20260831170442 30 164 0.0 0.0 0.00 0.00 0.00 75 1018.7
20260831165442 29 58 0.0 1.6 0.00 0.00 0.00 76 1018.8
20260831164442 29 48 0.0 0.0 0.00 0.00 0.00 78 1018.9
20260831163441 29 49 0.0 1.6 0.00 0.00 0.00 78 1018.9
20260831162442 28 216 3.2 3.2 0.00 0.00 0.00 78 1019.0
20260831160442 28 80 0.0 0.0 0.00 0.00 0.00 79 1019.0
20260831155442 28 74 0.0 0.0 0.00 0.00 0.00 79 1019.1